Tracking 35274 objects as of 10-Sep-2026
HD Live streaming from Space Station
objects crossing your sky now

STARLINK-30530

Track STARLINK-30530 now!
10-day predictions
STARLINK-30530 is classified as:


NORAD ID: 58005
Int'l Code: 2023-153Q
Launch date: October 5, 2023
Source: United States (US)
Launch site: AIR FORCE EASTERN TEST RANGE (AFETR)
Your satellite tracking list
Your tracking list is empty




NASA's NSSDC Master Catalog

Two Line Element Set (TLE):
1 58005U 23153Q   26252.33068515  .00000709  00000-0  35317-4 0  9999
2 58005  43.0060 109.7910 0002122 257.9074 102.1540 15.27577482162988
Source of the keplerian elements: AFSPC